GW0658 Weather Reports


Display with metric or nautical units.
time (UTC)temp
F
wind
direction
speed
MPH
gust
MPH
rain 1hr
in
rain 24hr
in
rain mn
in
humidity
%
barometer
mb
20260508214544 72 219 5.0 12.0 0.00 0.00 0.00 38 1020.5
20260508214017 73 263 4.0 8.0 0.00 0.00 0.00 39 1020.5
20260508213518 73 208 4.0 8.0 0.00 0.00 0.00 40 1020.4
20260508213041 73 250 3.0 9.0 0.00 0.00 0.00 44 1020.4
20260508212520 72 256 4.0 9.0 0.00 0.00 0.00 43 1020.4
20260508212017 73 237 3.0 9.0 0.00 0.00 0.00 47 1020.6
20260508211535 73 239 4.0 8.0 0.00 0.00 0.00 48 1020.6
20260508211020 73 243 3.0 8.0 0.00 0.00 0.00 50 1020.6
20260508210519 73 246 2.0 8.0 0.00 0.00 0.00 50 1020.6
20260508210037 73 267 4.0 8.0 0.00 0.00 0.00 48 1020.6
20260508205517 73 218 3.0 8.0 0.00 0.00 0.00 49 1020.5
20260508205020 73 239 4.0 8.0 0.00 0.00 0.00 47 1020.6
20260508204541 73 230 4.0 8.0 0.00 0.00 0.00 49 1020.6
20260508204018 73 279 3.0 10.0 0.00 0.00 0.00 47 1020.6
20260508203518 73 251 4.0 10.0 0.00 0.00 0.00 50 1020.6
20260508203048 72 198 4.0 10.0 0.00 0.00 0.00 51 1020.5
20260508202517 72 277 4.0 13.0 0.00 0.00 0.00 47 1020.7
20260508202019 72 232 5.0 13.0 0.00 0.00 0.00 49 1020.7
20260508201535 73 236 3.0 9.0 0.00 0.00 0.00 49 1020.7
20260508201019 74 234 2.0 8.0 0.00 0.00 0.00 48 1020.7
20260508200516 73 219 4.0 7.0 0.00 0.00 0.00 43 1020.8
20260508200035 73 221 3.0 7.0 0.00 0.00 0.00 46 1020.7
20260508195519 72 222 2.0 8.0 0.00 0.00 0.00 47 1020.7
20260508195016 72 225 2.0 8.0 0.00 0.00 0.00 43 1020.7
20260508194541 73 279 3.0 9.0 0.00 0.00 0.00 40 1020.9
20260508194016 72 269 4.0 9.0 0.00 0.00 0.00 41 1020.9
20260508193517 73 269 3.0 6.0 0.00 0.00 0.00 42 1021.0
20260508193037 72 65 1.0 8.0 0.00 0.00 0.00 33 1021.0
20260508192516 72 229 3.0 8.0 0.00 0.00 0.00 32 1021.1
20260508192017 72 214 2.0 7.0 0.00 0.00 0.00 37 1021.0
20260508191538 73 226 3.0 9.0 0.00 0.00 0.00 34 1021.0
20260508191017 73 219 1.0 9.0 0.00 0.00 0.00 38 1021.0
20260508190516 72 222 3.0 8.0 0.00 0.00 0.00 38 1021.1
20260508190043 72 263 2.0 8.0 0.00 0.00 0.00 39 1021.1
20260508185517 71 240 2.0 8.0 0.00 0.00 0.00 41 1021.2
20260508185016 71 255 2.0 8.0 0.00 0.00 0.00 36 1021.2
20260508184536 72 228 5.0 9.0 0.00 0.00 0.00 41 1021.2
20260508184017 71 229 2.0 9.0 0.00 0.00 0.00 38 1021.2
20260508183516 71 180 1.0 9.0 0.00 0.00 0.00 36 1021.3
20260508183038 71 219 4.0 9.0 0.00 0.00 0.00 43 1021.2
20260508182517 71 209 3.0 7.0 0.00 0.00 0.00 46 1021.3
20260508182017 71 0 3.0 7.0 0.00 0.00 0.00 44 1021.2
20260508181535 71 240 3.0 6.0 0.00 0.00 0.00 47 1021.2
20260508181020 70 160 2.0 6.0 0.00 0.00 0.00 47 1021.3
20260508180516 70 216 2.0 6.0 0.00 0.00 0.00 43 1021.4
20260508180035 70 274 2.0 5.0 0.00 0.00 0.00 45 1021.4
20260508175520 70 224 3.0 5.0 0.00 0.00 0.00 45 1021.3
20260508175016 70 219 1.0 9.0 0.00 0.00 0.00 41 1021.4
20260508174556 69 210 3.0 9.0 0.00 0.00 0.00 41 1021.3
20260508174017 69 265 2.0 6.0 0.00 0.00 0.00 44 1021.4
20260508173516 69 217 2.0 5.0 0.00 0.00 0.00 42 1021.3
20260508173033 69 216 2.0 6.0 0.00 0.00 0.00 41 1021.4
20260508172517 69 224 2.0 8.0 0.00 0.00 0.00 44 1021.3
20260508172014 69 205 3.0 8.0 0.00 0.00 0.00 40 1021.3
20260508171535 69 236 3.0 5.0 0.00 0.00 0.00 39 1021.3
20260508171018 69 232 2.0 6.0 0.00 0.00 0.00 47 1021.2
20260508170517 68 214 3.0 6.0 0.00 0.00 0.00 45 1021.1
20260508170037 68 207 2.0 6.0 0.00 0.00 0.00 42 1021.2
20260508165517 68 239 1.0 3.0 0.00 0.00 0.00 44 1021.2
20260508165108 68 215 0.0 4.0 0.00 0.00 0.00 48 1021.1
20260508164546 68 0 1.0 5.0 0.00 0.00 0.00 43 1021.1
20260508164018 67 223 1.0 5.0 0.00 0.00 0.00 39 1021.1
20260508163518 67 228 2.0 5.0 0.00 0.00 0.00 44 1021.1
20260508163107 67 150 0.0 3.0 0.00 0.00 0.00 44 1021.2
20260508162516 66 258 0.0 3.0 0.00 0.00 0.00 42 1021.1
20260508162021 65 0 0.0 0.0 0.00 0.00 0.00 43 1021.1
20260508161538 65 0 0.0 0.0 0.00 0.00 0.00 44 1021.0
20260508161019 64 0 0.0 0.0 0.00 0.00 0.00 47 1021.0
20260508160523 64 0 0.0 3.0 0.00 0.00 0.00 50 1021.0
20260508160037 63 0 0.0 3.0 0.00 0.00 0.00 51 1020.9
20260508155519 62 0 0.0 3.0 0.00 0.00 0.00 50 1020.9
20260508155019 61 201 0.0 3.0 0.00 0.00 0.00 51 1020.9
20260508154548 60 0 0.0 0.0 0.00 0.00 0.00 57 1020.9
20260508154018 60 0 0.0 0.0 0.00 0.00 0.00 57 1021.0
20260508153518 59 0 0.0 0.0 0.00 0.00 0.00 56 1020.9
20260508153044 59 0 0.0 0.0 0.00 0.00 0.00 55 1021.0
20260508152520 59 0 0.0 2.0 0.00 0.00 0.00 55 1020.9
20260508152019 59 0 0.0 2.0 0.00 0.00 0.00 54 1020.9
20260508151542 58 88 0.0 3.0 0.00 0.00 0.00 52 1020.9
20260508151024 58 0 1.0 3.0 0.00 0.00 0.00 53 1020.9
20260508150522 58 0 1.0 3.0 0.00 0.00 0.00 55 1020.8
20260508150040 57 83 1.0 3.0 0.00 0.00 0.00 54 1020.8
20260508145520 57 84 1.0 3.0 0.00 0.00 0.00 55 1020.8
20260508145019 57 82 1.0 3.0 0.00 0.00 0.00 55 1020.9
20260508144540 56 84 1.0 3.0 0.00 0.00 0.00 55 1020.7
20260508144020 56 84 1.0 3.0 0.00 0.00 0.00 54 1020.8
20260508143517 56 81 1.0 3.0 0.00 0.00 0.00 54 1020.7
20260508143037 56 76 1.0 3.0 0.00 0.00 0.00 52 1020.7
20260508142519 56 88 1.0 3.0 0.00 0.00 0.00 53 1020.6
20260508142018 55 78 1.0 3.0 0.00 0.00 0.00 54 1020.6
20260508141536 55 84 1.0 3.0 0.00 0.00 0.00 54 1020.6
20260508141018 55 80 1.0 3.0 0.00 0.00 0.00 53 1020.6
20260508140517 56 80 0.0 3.0 0.00 0.00 0.00 53 1020.4
20260508140044 56 0 0.0 0.0 0.00 0.00 0.00 52 1020.5
20260508135517 56 0 0.0 0.0 0.00 0.00 0.00 51 1020.4
20260508135017 56 0 0.0 0.0 0.00 0.00 0.00 52 1020.3
20260508134544 56 0 0.0 0.0 0.00 0.00 0.00 52 1020.3
20260508134019 55 0 0.0 0.0 0.00 0.00 0.00 52 1020.3
20260508133523 56 0 0.0 0.0 0.00 0.00 0.00 52 1020.3
20260508133046 56 0 0.0 0.0 0.00 0.00 0.00 52 1020.2
20260508132519 56 0 0.0 0.0 0.00 0.00 0.00 52 1020.3
20260508132020 56 0 0.0 0.0 0.00 0.00 0.00 52 1020.3
20260508131550 56 0 0.0 0.0 0.00 0.00 0.00 52 1020.2
20260508131020 56 0 0.0 0.0 0.00 0.00 0.00 52 1020.2
20260508130520 56 0 0.0 0.0 0.00 0.00 0.00 53 1020.2
20260508130049 56 0 0.0 0.0 0.00 0.00 0.00 53 1020.1
20260508125519 55 0 0.0 0.0 0.00 0.00 0.00 53 1020.1
20260508125019 55 0 0.0 0.0 0.00 0.00 0.00 53 1020.2
20260508124543 55 0 0.0 0.0 0.00 0.00 0.00 54 1020.2
20260508124017 55 0 0.0 0.0 0.00 0.00 0.00 55 1020.1
20260508123517 55 0 0.0 0.0 0.00 0.00 0.00 55 1020.1
20260508123041 55 0 0.0 0.0 0.00 0.00 0.00 57 1020.2
20260508122516 55 0 0.0 0.0 0.00 0.00 0.00 56 1020.2
20260508122016 55 0 0.0 0.0 0.00 0.00 0.00 57 1020.2
20260508121542 55 0 0.0 0.0 0.00 0.00 0.00 57 1020.2
20260508121017 55 0 0.0 0.0 0.00 0.00 0.00 57 1020.2
20260508120517 55 0 0.0 0.0 0.00 0.00 0.00 56 1020.1
20260508120042 55 0 0.0 0.0 0.00 0.00 0.00 55 1020.1
20260508115519 55 0 0.0 0.0 0.00 0.00 0.00 54 1020.2
20260508115017 56 0 0.0 0.0 0.00 0.00 0.00 52 1020.0
20260508114538 56 0 0.0 0.0 0.00 0.00 0.00 52 1020.1
20260508114023 56 0 0.0 0.0 0.00 0.00 0.00 52 1020.1
20260508113519 56 0 0.0 0.0 0.00 0.00 0.00 50 1020.0
20260508113044 57 0 0.0 0.0 0.00 0.00 0.00 49 1020.1
20260508112520 57 0 0.0 0.0 0.00 0.00 0.00 50 1019.9
20260508112019 57 0 0.0 0.0 0.00 0.00 0.00 49 1020.0
20260508111536 57 0 0.0 0.0 0.00 0.00 0.00 49 1020.0
20260508111019 57 0 0.0 0.0 0.00 0.00 0.00 48 1020.1
20260508110518 56 0 0.0 0.0 0.00 0.00 0.00 49 1020.0
20260508110054 56 0 0.0 0.0 0.00 0.00 0.00 48 1020.1
20260508105516 56 0 0.0 0.0 0.00 0.00 0.00 49 1020.2
20260508105016 56 0 0.0 0.0 0.00 0.00 0.00 50 1020.2
20260508104540 56 0 0.0 0.0 0.00 0.00 0.00 50 1020.2
20260508104047 57 0 0.0 0.0 0.00 0.00 0.00 51 1020.2
20260508103518 57 0 0.0 0.0 0.00 0.00 0.00 51 1020.2
20260508103038 57 0 0.0 0.0 0.00 0.00 0.00 50 1020.2
20260508102519 57 0 0.0 2.0 0.00 0.00 0.00 51 1020.2
20260508102019 57 0 0.0 2.0 0.00 0.00 0.00 52 1020.2
20260508101549 57 75 1.0 3.0 0.00 0.00 0.00 52 1020.2
20260508101019 57 78 1.0 3.0 0.00 0.00 0.00 52 1020.1
20260508100519 57 74 1.0 3.0 0.00 0.00 0.00 54 1020.2
20260508100037 57 0 0.0 0.0 0.00 0.00 0.00 54 1020.1
20260508095519 57 0 0.0 0.0 0.00 0.00 0.00 53 1020.2
20260508095017 57 0 0.0 0.0 0.00 0.00 0.00 51 1020.2
20260508094544 58 0 0.0 0.0 0.00 0.00 0.00 53 1020.2
20260508094018 57 0 0.0 0.0 0.00 0.00 0.00 51 1020.1
20260508093517 57 0 0.0 3.0 0.00 0.00 0.00 52 1020.1
20260508093053 57 0 0.0 3.0 0.00 0.00 0.00 51 1020.0
20260508092518 57 86 1.0 3.0 0.00 0.00 0.00 53 1020.0
20260508092016 57 94 1.0 4.0 0.00 0.00 0.00 52 1020.0
20260508091541 57 82 1.0 4.0 0.00 0.00 0.00 53 1020.0
20260508091019 57 84 1.0 3.0 0.00 0.00 0.00 54 1020.0
20260508090519 57 84 1.0 2.0 0.00 0.00 0.00 54 1020.0
20260508085519 56 80 0.0 3.0 0.00 0.00 0.00 56 1019.9
20260508085019 56 86 1.0 3.0 0.00 0.00 0.00 57 1019.8
20260508084535 56 103 1.0 2.0 0.00 0.00 0.00 58 1019.8
20260508084018 56 81 0.0 2.0 0.00 0.00 0.00 57 1019.8
20260508083519 56 0 0.0 0.0 0.00 0.00 0.00 56 1019.9
20260508083036 56 0 0.0 0.0 0.00 0.00 0.00 55 1019.9
20260508082519 56 0 0.0 0.0 0.00 0.00 0.00 54 1020.0
20260508082019 57 0 0.0 2.0 0.00 0.00 0.00 53 1019.9
20260508081535 57 0 0.0 3.0 0.00 0.00 0.00 53 1019.9
20260508081018 57 84 1.0 3.0 0.00 0.00 0.00 55 1020.0
20260508080516 57 83 1.0 3.0 0.00 0.00 0.00 56 1020.0
20260508080041 57 0 0.0 2.0 0.00 0.00 0.00 55 1020.1
20260508075517 57 0 0.0 0.0 0.00 0.00 0.00 54 1020.1
20260508075020 57 0 0.0 3.0 0.00 0.00 0.00 54 1020.0
20260508074543 57 0 0.0 3.0 0.00 0.00 0.00 56 1020.0
20260508074018 58 0 0.0 3.0 0.00 0.00 0.00 57 1020.1
20260508073518 58 0 0.0 3.0 0.00 0.00 0.00 58 1020.1
20260508073035 58 69 1.0 3.0 0.00 0.00 0.00 58 1020.1
20260508072517 59 71 1.0 3.0 0.00 0.00 0.00 58 1020.2
20260508072019 59 54 1.0 3.0 0.00 0.00 0.00 59 1020.2
20260508071539 59 53 1.0 4.0 0.00 0.00 0.00 57 1020.2
20260508071019 59 0 1.0 4.0 0.00 0.00 0.00 57 1020.3
20260508070519 59 64 0.0 4.0 0.00 0.00 0.00 60 1020.2
20260508070035 59 0 1.0 4.0 0.00 0.00 0.00 60 1020.2
20260508065519 59 52 1.0 4.0 0.00 0.00 0.00 63 1020.3
20260508065018 58 59 1.0 4.0 0.00 0.00 0.00 64 1020.3
20260508064535 58 58 2.0 4.0 0.00 0.00 0.00 66 1020.3
20260508064019 58 54 2.0 4.0 0.00 0.00 0.00 67 1020.4
20260508063519 58 51 2.0 4.0 0.00 0.00 0.00 68 1020.3
20260508063042 58 40 2.0 4.0 0.00 0.00 0.00 69 1020.4
20260508062518 58 49 2.0 4.0 0.00 0.00 0.00 69 1020.3
20260508062016 58 40 2.0 4.0 0.00 0.00 0.00 69 1020.4
20260508061535 58 54 1.0 4.0 0.00 0.00 0.00 69 1020.5
20260508061019 58 59 1.0 3.0 0.00 0.00 0.00 71 1020.5
20260508060522 58 59 1.0 3.0 0.00 0.00 0.00 72 1020.5
20260508060043 58 60 1.0 3.0 0.00 0.00 0.00 73 1020.6
20260508055518 58 59 1.0 3.0 0.00 0.00 0.00 73 1020.7
20260508055023 58 82 1.0 3.0 0.00 0.00 0.00 74 1020.6
20260508054559 58 0 0.0 0.0 0.00 0.00 0.00 75 1020.6
20260508054020 58 0 0.0 0.0 0.00 0.00 0.00 75 1020.6
20260508053518 58 0 0.0 0.0 0.00 0.00 0.00 76 1020.7
20260508053041 58 0 0.0 0.0 0.00 0.00 0.00 78 1020.7
20260508052519 59 0 0.0 0.0 0.00 0.00 0.00 79 1020.7
20260508052017 59 0 0.0 0.0 0.00 0.00 0.00 80 1020.7
20260508051536 59 0 0.0 0.0 0.00 0.00 0.00 81 1020.8
20260508051017 59 0 0.0 0.0 0.00 0.00 0.00 81 1020.8
20260508050519 60 0 0.0 0.0 0.00 0.00 0.00 82 1020.9
20260508050042 60 0 0.0 0.0 0.00 0.00 0.00 83 1020.8
20260508045516 60 0 0.0 0.0 0.00 0.00 0.00 84 1020.9
20260508045016 59 0 0.0 0.0 0.00 0.00 0.00 85 1020.8
20260508044536 59 0 0.0 0.0 0.00 0.00 0.00 85 1020.8
20260508044018 58 0 0.0 0.0 0.00 0.00 0.00 86 1020.9
20260508043517 58 0 0.0 1.0 0.00 0.00 0.00 85 1020.9
20260508043042 58 0 0.0 2.0 0.00 0.00 0.00 85 1020.8
20260508042518 58 0 0.0 2.0 0.00 0.00 0.00 86 1020.7
20260508042018 59 281 1.0 2.0 0.00 0.00 0.00 85 1020.8
20260508041550 59 281 0.0 2.0 0.00 0.00 0.00 85 1020.9
20260508041016 59 281 1.0 2.0 0.00 0.00 0.00 85 1020.8
20260508040519 59 281 0.0 0.0 0.00 0.00 0.00 84 1020.7
20260508040037 59 0 0.0 0.0 0.00 0.00 0.00 84 1020.7
20260508035518 59 0 0.0 0.0 0.00 0.00 0.00 84 1020.7
20260508035022 60 0 0.0 0.0 0.00 0.00 0.00 83 1020.7
20260508034542 60 0 0.0 2.0 0.00 0.00 0.00 83 1020.6
20260508034019 60 0 0.0 2.0 0.00 0.00 0.00 83 1020.6
20260508033518 60 0 0.0 2.0 0.00 0.00 0.00 82 1020.4
20260508033038 61 281 1.0 2.0 0.00 0.00 0.00 82 1020.4
20260508032518 61 0 0.0 0.0 0.00 0.00 0.00 81 1020.4
20260508032018 62 0 0.0 0.0 0.00 0.00 0.00 80 1020.3
20260508031554 62 0 0.0 0.0 0.00 0.00 0.00 79 1020.2
20260508031019 63 0 0.0 0.0 0.00 0.00 0.00 79 1020.1
20260508030519 63 0 0.0 0.0 0.00 0.00 0.00 78 1020.1
20260508030054 64 0 0.0 0.0 0.00 0.00 0.00 77 1020.1
20260508025518 64 0 0.0 0.0 0.00 0.00 0.00 76 1020.1
20260508025019 65 0 0.0 0.0 0.00 0.00 0.00 75 1020.1
20260508024537 65 0 0.0 0.0 0.00 0.00 0.00 75 1020.1
20260508024016 65 0 0.0 3.0 0.00 0.00 0.00 74 1020.0
20260508023519 65 0 0.0 3.0 0.00 0.00 0.00 73 1020.1
20260508023042 66 281 1.0 5.0 0.00 0.00 0.00 72 1020.1
20260508022519 66 0 1.0 5.0 0.00 0.00 0.00 71 1020.1
20260508022019 67 245 2.0 4.0 0.00 0.00 0.00 70 1020.1
20260508021541 67 232 1.0 3.0 0.00 0.00 0.00 69 1020.0
20260508021015 67 257 0.0 4.0 0.00 0.00 0.00 69 1019.9
20260508020520 67 249 2.0 4.0 0.00 0.00 0.00 67 1020.1
20260508020034 68 247 2.0 5.0 0.00 0.00 0.00 67 1020.1
20260508015516 68 246 2.0 5.0 0.00 0.00 0.00 66 1020.1
20260508015018 68 252 3.0 5.0 0.00 0.00 0.00 63 1020.1
20260508014541 69 215 2.0 5.0 0.00 0.00 0.00 61 1020.0
20260508014018 70 278 2.0 4.0 0.00 0.00 0.00 61 1020.1
20260508013516 70 225 2.0 5.0 0.00 0.00 0.00 61 1020.1
20260508013038 70 215 3.0 5.0 0.00 0.00 0.00 60 1020.2
20260508012518 70 246 2.0 5.0 0.00 0.00 0.00 59 1020.2
20260508012018 70 282 2.0 7.0 0.00 0.00 0.00 61 1020.2
20260508011536 69 221 3.0 7.0 0.00 0.00 0.00 58 1020.2
20260508011017 70 273 3.0 8.0 0.00 0.00 0.00 58 1020.1
20260508010517 70 254 3.0 8.0 0.00 0.00 0.00 57 1020.1
20260508010041 70 233 3.0 8.0 0.00 0.00 0.00 57 1020.2
20260508005518 70 208 4.0 8.0 0.00 0.00 0.00 53 1020.2
20260508005019 71 247 4.0 9.0 0.00 0.00 0.00 51 1020.2
20260508004534 71 222 3.0 9.0 0.00 0.00 0.00 53 1020.2
20260508004017 71 259 4.0 9.0 0.00 0.00 0.00 48 1020.2
20260508003519 72 246 3.0 8.0 0.00 0.00 0.00 48 1020.2
20260508003035 72 222 2.0 8.0 0.00 0.00 0.00 46 1020.3
20260508002516 72 258 3.0 8.0 0.00 0.00 0.00 43 1020.1
20260508002018 72 228 3.0 9.0 0.00 0.00 0.00 43 1020.2
20260508001537 71 214 3.0 9.0 0.00 0.00 0.00 49 1020.1
20260508001015 71 232 4.0 9.0 0.00 0.00 0.00 53 1020.2
20260508000518 71 224 3.0 9.0 0.00 0.00 0.00 49 1020.2
20260508000040 72 248 4.0 9.0 0.00 0.00 0.00 45 1020.2
20260507235516 71 265 3.0 7.0 0.00 0.00 0.00 50 1020.1
20260507235016 71 239 3.0 8.0 0.00 0.00 0.00 54 1020.1
20260507234542 71 208 3.0 11.0 0.00 0.00 0.00 54 1020.1
20260507234016 71 218 3.0 11.0 0.00 0.00 0.00 56 1020.2
20260507233517 71 234 3.0 11.0 0.00 0.00 0.00 51 1020.2
20260507233041 71 5 4.0 10.0 0.00 0.00 0.00 58 1020.2
20260507232518 72 247 4.0 10.0 0.00 0.00 0.00 55 1020.2
20260507232022 72 205 3.0 8.0 0.00 0.00 0.00 54 1020.2
20260507231551 72 229 4.0 8.0 0.00 0.00 0.00 55 1020.2
20260507231019 72 199 3.0 7.0 0.00 0.00 0.00 57 1020.2
20260507230519 72 207 4.0 9.0 0.00 0.00 0.00 57 1020.3
20260507230041 72 221 2.0 9.0 0.00 0.00 0.00 57 1020.4
20260507225515 72 284 3.0 9.0 0.00 0.00 0.00 59 1020.4
20260507225019 72 267 3.0 10.0 0.00 0.00 0.00 60 1020.4
20260507224550 72 252 4.0 10.0 0.00 0.00 0.00 57 1020.5
20260507224016 72 238 5.0 10.0 0.00 0.00 0.00 52 1020.6
20260507223518 73 249 4.0 8.0 0.00 0.00 0.00 56 1020.6
20260507223043 73 203 5.0 8.0 0.00 0.00 0.00 54 1020.7
20260507222519 72 183 3.0 8.0 0.00 0.00 0.00 58 1020.8
20260507222015 73 236 4.0 7.0 0.00 0.00 0.00 56 1020.9
20260507221538 72 226 4.0 9.0 0.00 0.00 0.00 56 1020.8
20260507221017 72 305 3.0 11.0 0.00 0.00 0.00 60 1020.9
20260507220519 71 14 2.0 11.0 0.00 0.00 0.00 57 1021.0
20260507220038 72 229 7.0 11.0 0.00 0.00 0.00 59 1021.1
20260507215519 72 210 3.0 7.0 0.00 0.00 0.00 60 1021.2
20260507215019 72 208 2.0 7.0 0.00 0.00 0.00 63 1021.3